CZ-4B DEB, 43431

Orbit data source: Space-Track

CZ-4B DEB, 43431 is space debris in LEO originally from a launch on Thu, 15 Jun 2017 UTC launched from the Jiuquan Satellite Launch Center, China (JSC). Debris objects in space refer to the collection of defunct objects orbiting the Earth. Examples of debris include non-operational satellites, rocket bodies, and fragments generated from explosions, collisions, or faulty payload assembly.

Loading next visibility...
Identifier
43431, 2017-034G
Orbit
LEO
Country
Flag of CNCN / PRC
Related business
Manufacturer
SAST
Mission
Spacecraft
Bus & Motor
Unknown
Mass
Unknown
Launch date (UTC)
2017-06-15 (9 years ago)
Launch vehicle
Unknown
Launch site
Jiuquan Satellite Launch Center, China (JSC)
Object type
Payload
Rocket body
Debris
Shape & HBR
Unknown shape, 0.1 m
Radar Cross Section
Small (<0.1 m²)

Expand to show TLE details & history
Last TLE update: 13 hours ago

TLE from 13 hours ago
0 CZ-4B DEB
1 43431U 17034G   26036.22676135  .00022032  00000-0  15657-2 0  9994
2 43431  43.0816   1.3322 0116811 140.6602 220.2797 14.98917692460338
Epoch: 2026-02-05T05:26Z
TLE epoch observation values (Epoch: 2026-02-05T05:26:32.180Z)
Latitude
0.00001°
Longitude
144.3161°
Altitude
632.33 km
Speed
7.51 km/s
True Right ascension
00h 05m 19s
True Declination
0° 00' 00"
Sunlit
Object was in daylight at epoch
Visualization orbit readout
Latitude
Unknown
Longitude
Unknown
Altitude
Unknown
Speed
Unknown
Apparent Right ascension
Unknown
Apparent Declination
Unknown
Sunlit
N/A
Visualization observer readout
Local Sidereal Time
20:55:03
Azimuth
Unknown
Elevation
Unknown
Doppler factor
Unknown
Orbital elements
Apogee altitude
653.334 km
Perigee altitude
490.96 km
Semi-major axis
6,950.284 km
Eccentricity
0.01168
Inclination
43.0816°
RAAN
1.3322°
Arg. of periapsis
140.6602°
True anomaly
219.42387°
Mean anomaly
220.2797°
Eccentric anomaly
219.85083°
Mean motion
3.74575 °/min
Orbital period
96.11 mins
BSTAR
0.0015657
Loading maneuver chart data...
Computing Atmospheric mass density...
Loading historical data...
Loading historical data...
Loading historical data...
Loading historical data...
Loading historical data...
Loading historical data...
Loading historical data...

Documentation

Showing up to 5 results
|